2024/04/14 00:00:00, 0.0, 9.4
2024/04/14 00:10:00, 0.0, 9.2
2024/04/14 00:20:00, 0.0, 9.4
2024/04/14 00:30:00, 0.0, 9.3
2024/04/14 00:40:00, 0.0, 9.2
2024/04/14 00:50:00, 0.0, 9.2
2024/04/14 01:00:00, 0.0, 8.8
2024/04/14 01:10:00, 0.0, 8.8
2024/04/14 01:20:00, 0.0, 8.9
2024/04/14 01:30:00, 0.0, 9.1
2024/04/14 01:40:00, 0.0, 8.9
2024/04/14 01:50:00, 0.0, 8.8
2024/04/14 02:00:00, 0.0, 8.7
2024/04/14 02:10:00, 0.0, 8.6
2024/04/14 02:20:00, 0.0, 8.7
2024/04/14 02:30:00, 0.0, 8.4
2024/04/14 02:40:00, 0.0, 8.7
2024/04/14 02:50:00, 0.0, 8.7
2024/04/14 03:00:00, 0.0, 8.5
2024/04/14 03:10:00, 0.0, 8.6
2024/04/14 03:20:00, 0.0, 8.3
2024/04/14 03:30:00, 0.0, 8.6
2024/04/14 03:40:00, 0.0, 8.5
2024/04/14 03:50:00, 0.0, 8.5
2024/04/14 04:00:00, 0.0, 8.5
2024/04/14 04:10:00, 0.0, 8.4
2024/04/14 04:20:00, 0.0, 7.9
2024/04/14 04:30:00, 0.0, 7.5
2024/04/14 04:40:00, 0.0, 8.5
2024/04/14 04:50:00, 0.0, 8.5
2024/04/14 05:00:00, 0.0, 7.9
2024/04/14 05:10:00, 0.0, 8.2
2024/04/14 05:20:00, 0.0, 8.0
2024/04/14 05:30:00, 0.0, 8.0
2024/04/14 05:40:00, 0.0, 8.0
2024/04/14 05:50:00, 0.0, 8.6
2024/04/14 06:00:00, 0.0, 8.8
2024/04/14 06:10:00, 0.0, 8.8
2024/04/14 06:20:00, 0.0,11.9
2024/04/14 06:30:00, 0.1,13.5
2024/04/14 06:40:00, 0.1,13.8
2024/04/14 06:50:00, 0.1,15.0
2024/04/14 07:00:00, 0.1,15.2
2024/04/14 07:10:00, 0.1,16.5
2024/04/14 07:20:00, 0.1,18.0
2024/04/14 07:30:00, 0.2,19.9
2024/04/14 07:40:00, 0.2,20.2
2024/04/14 07:50:00, 0.3,20.6
2024/04/14 08:00:00, 0.4,22.0
2024/04/14 08:10:00, 0.5,21.9
2024/04/14 08:20:00, 0.4,22.3
2024/04/14 08:30:00, 0.4,23.0
2024/04/14 08:40:00, 0.4,23.0
2024/04/14 08:50:00, 0.4,23.7
2024/04/14 09:00:00, 0.5,23.7
2024/04/14 09:10:00, 0.5,23.6
2024/04/14 09:20:00, 0.2,23.3
2024/04/14 09:30:00, 0.0,22.7
2024/04/14 09:40:00, 0.0,22.8
2024/04/14 09:50:00, 0.3,22.9
2024/04/14 10:00:00, 0.3,23.8
2024/04/14 10:10:00, 0.6,24.9
2024/04/14 10:20:00, 0.7,26.1
2024/04/14 10:30:00, 0.8,26.6
2024/04/14 10:40:00, 0.8,26.6
2024/04/14 10:50:00, 0.7,26.6
2024/04/14 11:00:00, 0.8,27.2
2024/04/14 11:10:00, 0.4,27.2
2024/04/14 11:20:00, 0.9,27.9
2024/04/14 11:30:00, 0.9,27.5
2024/04/14 11:40:00, 0.8,28.1
2024/04/14 11:50:00, 0.9,28.0
2024/04/14 12:00:00, 0.8,28.1
2024/04/14 12:10:00, 0.8,28.3
2024/04/14 12:20:00, 0.8,28.3
2024/04/14 12:30:00, 0.9,28.2
2024/04/14 12:40:00, 0.8,28.4
2024/04/14 12:50:00, 0.8,28.0
2024/04/14 13:00:00, 0.8,28.7
2024/04/14 13:10:00, 0.8,28.1
2024/04/14 13:20:00, 0.8,28.0
2024/04/14 13:30:00, 0.7,27.9
2024/04/14 13:40:00, 0.8,27.9
2024/04/14 13:50:00, 0.9,28.0
2024/04/14 14:00:00, 0.8,28.0
2024/04/14 14:10:00, 0.8,27.5
2024/04/14 14:20:00, 0.7,27.5
2024/04/14 14:30:00, 0.6,27.0
2024/04/14 14:40:00, 0.5,27.2
2024/04/14 14:50:00, 0.5,27.2
2024/04/14 15:00:00, 0.3,27.1
2024/04/14 15:10:00, 0.2,27.0
2024/04/14 15:20:00, 0.1,26.0
2024/04/14 15:30:00, 0.0,26.5
2024/04/14 15:40:00, 0.0,26.2
2024/04/14 15:50:00, 0.0,25.5
2024/04/14 16:00:00, 0.0,25.0
2024/04/14 16:10:00, 0.0,24.6
2024/04/14 16:20:00, 0.0,23.8
2024/04/14 16:30:00, 0.0,23.0
2024/04/14 16:40:00, 0.0,20.9
2024/04/14 16:50:00, 0.0,20.9
2024/04/14 17:00:00, 0.0,20.5
2024/04/14 17:10:00, 0.0,20.7
2024/04/14 17:20:00, 0.0,19.6
2024/04/14 17:30:00, 0.0,18.9
2024/04/14 17:40:00, 0.0,18.4
2024/04/14 17:50:00, 0.0,18.1
2024/04/14 18:00:00, 0.0,17.9
2024/04/14 18:10:00, 0.0,17.3
2024/04/14 18:20:00, 0.0,16.6
2024/04/14 18:30:00, 0.0,15.8
2024/04/14 18:40:00, 0.0,15.8
2024/04/14 18:50:00, 0.0,15.2
2024/04/14 19:00:00, 0.0,14.8
2024/04/14 19:10:00, 0.0,14.6
2024/04/14 19:20:00, 0.0,14.3
2024/04/14 19:30:00, 0.0,14.2
2024/04/14 19:40:00, 0.0,13.7
2024/04/14 19:50:00, 0.0,14.0
2024/04/14 20:00:00, 0.0,13.7
2024/04/14 20:10:00, 0.0,13.2
2024/04/14 20:20:00, 0.0,13.3
2024/04/14 20:30:00, 0.0,13.3
2024/04/14 20:40:00, 0.0,12.9
2024/04/14 20:50:00, 0.0,12.8
2024/04/14 21:00:00, 0.0,12.6
2024/04/14 21:10:00, 0.0,13.0
2024/04/14 21:20:00, 0.0,12.6
2024/04/14 21:30:00, 0.0,12.7
2024/04/14 21:40:00, 0.0,12.4
2024/04/14 21:50:00, 0.0,12.6
2024/04/14 22:00:00, 0.0,12.4
2024/04/14 22:10:00, 0.0,12.4
2024/04/14 22:20:00, 0.0,12.4
2024/04/14 22:30:00, 0.0,12.4
2024/04/14 22:40:00, 0.0,12.2
2024/04/14 22:50:00, 0.0,12.3
2024/04/14 23:00:00, 0.0,11.9
2024/04/14 23:10:00, 0.0,11.8
2024/04/14 23:20:00, 0.0,11.5
2024/04/14 23:30:00, 0.0,11.3
2024/04/14 23:40:00, 0.0,11.4
2024/04/14 23:50:00, 0.0,11.0
